Temperature
8 8 8 9 9 9 9 9 9 10 10 10 10 10 10 10 10 10 10 10 10 10 10 10 10 10 10 10 9 9 9 9 9 9 9 9 9 9 9 9 9 9 9
7 8 8 8 8 8 9 9 9 9 9 10 10 10 10 9 10 9 9 9 10 10 9 9 9 9 9 9 9 9 9 9 9 8 8 8 8 8 9 9 8 8 8
7 7 7 7 8 8 8 8 9 9 9 9 9 9 9 9 9 9 9 9 9 9 9 9 9 9 9 9 9 9 8 8 8 8 8 8 8 7 8 8 8 8 8
6 6 6 7 7 8 8 8 8 8 9 9 9 9 9 9 9 9 9 9 9 9 9 9 9 8 8 8 8 8 8 8 8 8 8 8 8 7 7 7 7 7 7
6 6 6 6 7 7 7 8 8 8 8 8 8 8 8 8 8 8 8 8 8 8 8 8 8 8 8 8 8 8 7 7 7 8 8 8 7 7 7 6 6 6 6
5 6 6 6 6 6 7 7 7 7 8 8 8 8 8 8 8 8 8 8 8 8 8 8 8 7 7 7 7 7 7 7 7 7 7 7 7 7 6 6 6 6 6
5 5 5 5 5 6 6 6 7 7 7 7 7 7 7 7 7 7 7 7 7 7 7 7 7 7 7 7 7 7 7 7 7 7 7 7 7 7 6 6 5 5 5
4 5 5 5 5 5 6 6 6 6 6 7 7 7 6 7 6 7 7 7 7 7 7 7 7 7 7 6 6 6 6 6 6 6 6 6 6 6 6 6 5 5 5
4 4 4 4 4 5 5 6 6 6 6 6 6 6 6 6 6 6 6 6 6 6 6 6 6 6 6 6 6 6 6 6 6 6 6 6 6 5 5 5 5 4 4
4 4 4 4 4 4 5 5 5 5 6 6 6 6 6 6 6 6 6 6 6 6 6 6 6 6 6 6 5 5 5 5 5 5 5 5 5 5 5 5 5 4 4
3 3 3 3 3 4 4 5 5 5 5 5 5 5 5 5 5 5 5 5 5 5 5 5 5 5 5 5 5 5 5 5 5 5 5 5 4 4 4 4 4 4 4
3 3 3 3 3 3 3 4 4 4 4 4 4 4 4 4 5 5 5 5 5 5 4 4 4 4 5 5 5 4 4 4 4 4 4 4 4 4 4 4 4 3 3
2 2 2 2 3 3 3 3 3 4 4 4 4 4 4 4 4 4 4 4 4 4 4 4 4 4 4 4 4 4 4 4 4 4 4 4 4 3 3 3 3 3 3
2 2 2 2 2 2 2 3 3 3 3 3 3 3 3 3 3 3 3 3 3 3 3 3 3 3 3 3 3 3 3 3 3 3 3 3 3 3 3 2 3 2 2
1 2 1 2 2 2 2 2 2 3 3 3 3 3 3 3 3 3 3 3 3 3 3 3 3 3 3 3 3 2 2 2 2 2 2 2 2 2 2 2 2 2 2
1 1 1 1 1 1 1 2 2 2 2 2 2 2 2 2 2 2 2 2 2 2 2 2 2 2 2 2 2 2 2 2 2 2 2 2 2 2 2 2 2 2 2
0 0 1 1 1 1 1 1 1 1 2 2 2 2 2 2 2 2 2 2 2 2 2 2 2 2 2 2 2 2 1 1 1 1 1 1 1 1 1 1 1 1 1
0 0 0 0 0 0 1 1 1 1 1 1 1 1 1 1 1 1 1 1 1 1 1 1 1 1 1 1 1 1 1 1 1 1 1 1 1 1 1 1 1 1 1
-0 -0 0 0 0 0 0 0 1 1 1 1 1 1 1 1 1 1 1 1 1 1 1 1 1 1 1 1 1 1 0 0 0 0 0 0 0 0 0 0 0 0 0
-0 -0 -0 -0 -0 -0 -0 0 0 0 0 0 0 0 0 0 0 0 0 0 0 1 1 0 0 0 0 0 0 0 0 -0 -0 -0 0 0 0 0 0 -0 -0 -0 -0
-1 -0 -0 -0 -0 -0 -0 -0 0 0 -0 -0 -0 0 0 0 0 -0 -0 -0 -0 -0 -0 -0 -0 -0 -0 -0 -0 -0 -0 -0 -0 -0 -0 -0 -0 -0 -0 -0 -0 -0 -1
-1 -1 -1 -1 -1 -1 -1 -0 -0 -0 -0 -0 -0 -0 -0 -0 -0 -1 -1 -1 -1 -1 -1 -1 -1 -1 -0 -0 -0 -1 -1 -1 -1 -1 -0 -0 -0 -0 -1 -1 -1 -1 -1
-1 -1 -1 -1 -1 -1 -1 -1 -1 -1 -1 -1 -1 -1 -1 -1 -1 -1 -1 -1 -1 -1 -1 -1 -1 -1 -1 -1 -1 -1 -1 -1 -1 -1 -1 -1 -1 -1 -1 -1 -1 -1 -1
-2 -2 -2 -2 -1 -2 -2 -1 -1 -1 -1 -1 -1 -1 -1 -1 -1 -1 -1 -1 -1 -2 -2 -2 -2 -2 -1 -1 -1 -1 -1 -2 -2 -2 -2 -2 -2 -2 -2 -2 -2 -2 -2
-2 -2 -2 -2 -2 -2 -2 -2 -2 -2 -2 -2 -2 -2 -2 -2 -2 -2 -2 -2 -2 -2 -2 -2 -2 -2 -2 -2 -2 -2 -2 -2 -2 -2 -2 -2 -2 -2 -2 -2 -2 -2 -2
-3 -3 -3 -3 -2 -2 -2 -2 -2 -2 -2 -2 -2 -2 -2 -2 -2 -2 -2 -2 -2 -2 -2 -2 -2 -2 -2 -2 -2 -2 -2 -2 -3 -3 -3 -3 -3 -3 -3 -3 -3 -3 -3
Wind_Speed
5 4 4 4 4 4 4 4 4 4 4 4 4 5 4 4 4 3 5 6 7 7 6 5 5 5 5 5 5 4 4 2 2 2 1 2 2 2 2 2 2 1 1
4 4 4 4 4 3 4 4 4 4 5 4 4 4 4 4 4 3 4 5 6 7 6 6 5 5 5 5 6 5 4 3 3 3 2 2 3 2 2 2 2 1 1
5 4 4 4 3 3 4 4 4 4 5 5 4 4 4 3 3 4 4 5 6 6 6 6 6 5 5 5 6 6 6 4 4 3 3 3 3 2 2 3 3 2 2
4 4 4 3 4 3 3 3 4 4 4 5 5 7 6 5 4 4 4 5 5 6 6 6 6 6 5 5 5 5 6 6 4 3 3 2 2 2 2 3 3 2 2
4 4 4 3 3 2 2 2 3 3 4 5 6 7 6 4 3 4 4 4 3 4 5 5 5 5 5 5 5 5 6 5 5 4 3 3 3 4 3 3 3 2 2
4 3 3 2 2 1 1 1 2 2 3 4 5 6 6 6 5 5 4 3 3 2 3 4 5 5 5 5 5 5 6 5 5 5 4 4 3 4 4 4 4 4 3
3 3 2 2 2 1 1 1 2 2 3 4 4 5 6 6 6 6 5 4 3 2 3 4 4 4 4 4 5 5 5 5 5 5 4 4 4 3 3 4 4 4 3
3 3 3 2 2 2 1 1 2 3 3 3 4 4 5 4 4 5 4 4 3 3 3 4 4 4 4 4 4 4 4 4 5 5 4 3 3 3 3 3 3 3 3
3 2 2 2 2 2 2 2 2 2 3 3 3 4 4 4 4 4 3 3 2 2 3 3 4 4 4 4 4 3 4 4 5 4 4 4 3 3 3 3 4 4 4
3 3 2 2 2 2 1 1 2 1 2 2 2 2 3 3 4 3 3 3 2 2 2 3 3 4 4 4 4 3 3 4 4 4 5 4 3 3 3 3 3 4 4
3 3 2 2 2 2 1 0 0 1 1 1 2 2 3 3 3 3 3 2 2 2 3 3 3 3 3 4 3 3 4 5 4 4 4 5 4 3 3 3 3 3 4
3 3 3 2 2 1 1 1 1 1 1 1 1 2 3 3 3 3 3 3 2 2 2 3 3 3 3 3 4 4 4 5 5 5 4 4 3 4 3 3 4 3 3
4 3 3 3 2 1 1 1 1 1 1 1 1 2 2 2 2 2 2 2 2 2 2 3 3 3 3 3 4 4 4 5 5 5 5 5 4 4 3 4 4 3 3
4 4 3 3 3 2 1 1 1 0 1 1 1 1 1 1 2 2 2 2 3 3 3 3 3 4 3 3 4 4 4 5 4 5 5 5 5 5 4 4 4 4 3
5 5 4 4 3 2 2 1 1 1 0 1 1 0 0 1 1 2 2 2 2 3 3 3 3 3 3 4 4 4 4 4 4 4 5 5 5 5 4 4 4 4 3
6 5 5 4 4 3 3 2 2 1 1 0 0 0 1 1 1 2 2 2 2 3 3 3 3 3 3 4 5 5 5 4 4 4 4 4 4 5 5 5 4 5 5
6 6 5 5 5 4 4 3 3 2 1 1 1 1 1 1 2 2 2 2 3 3 3 4 4 4 4 4 5 6 5 5 5 5 4 4 4 4 5 5 5 5 5
6 6 6 6 5 5 4 3 3 3 2 2 2 2 2 2 3 3 3 3 3 3 4 4 4 4 4 5 5 5 6 5 5 5 5 5 5 4 5 4 5 5 5
6 6 6 6 5 4 4 3 3 3 3 3 3 4 4 3 3 4 4 4 4 4 4 4 4 5 5 5 6 6 4 5 5 5 5 5 5 5 5 5 5 5 5
6 5 5 5 4 4 3 4 4 4 4 4 4 4 4 4 4 4 4 4 4 4 4 4 4 5 5 5 6 6 4 5 5 5 5 6 6 6 6 6 5 6 5
6 5 5 4 4 4 3 4 4 5 5 4 4 5 5 5 5 5 4 4 4 4 4 5 5 5 5 5 6 7 5 5 5 5 5 5 6 7 8 7 6 6 5
6 5 4 4 4 4 4 4 5 5 4 4 4 5 5 4 4 4 4 4 4 4 5 4 5 4 5 5 6 7 7 6 6 6 5 5 6 7 7 6 6 6 5
6 5 4 5 4 4 4 5 5 4 4 4 5 4 4 4 4 4 4 4 4 4 4 4 4 4 4 5 7 7 7 7 6 5 5 5 6 6 6 6 6 5 4
6 5 5 5 5 4 4 4 4 4 4 4 4 4 4 4 4 4 4 4 4 4 5 5 5 5 4 4 4 4 4 5 5 4 5 5 5 4 4 4 5 5 5
6 5 5 5 5 5 4 4 4 3 4 4 4 4 4 4 4 4 4 5 5 5 6 5 5 5 5 5 4 4 3 4 4 3 3 3 3 4 4 4 4 4 4
5 5 5 5 5 4 4 4 4 4 4 4 4 4 3 3 3 3 3 4 5 6 7 7 6 5 6 5 5 5 5 5 4 3 3 4 4 5 5 4 4 4 4
Wind_Direction
261 271 274 265 246 229 226 222 210 207 199 193 192 192 193 188 185 192 185 181 180 181 178 175 178 181 185 188 184 180 179 185 176 191 207 206 204 207 216 222 207 176 160
266 269 270 271 254 238 227 223 215 205 202 199 197 200 188 185 180 177 180 181 182 183 182 181 182 185 186 187 187 181 189 199 201 209 211 223 213 204 214 216 220 217 185
266 276 271 271 272 250 236 226 218 211 205 195 184 175 174 175 180 183 187 185 187 182 182 184 185 184 189 192 196 195 195 200 207 219 229 231 232 216 200 212 214 219 224
268 279 280 277 275 266 250 230 219 211 202 191 188 183 187 189 192 187 187 182 187 183 184 183 183 186 189 194 199 207 205 203 205 211 235 260 264 231 218 209 212 221 239
271 272 274 271 278 278 259 243 217 208 197 191 192 193 192 189 178 176 174 176 179 184 185 183 181 187 190 192 194 200 209 212 212 211 211 221 239 243 235 236 233 232 235
279 271 271 270 283 283 265 240 216 205 194 187 189 192 187 183 177 177 175 178 179 182 185 185 190 190 189 192 194 200 204 211 213 213 214 215 219 222 224 232 235 243 245
285 280 279 270 276 276 273 229 215 201 198 190 186 190 190 186 186 182 180 182 186 194 198 189 196 197 193 190 190 197 203 207 208 211 217 223 227 230 231 233 241 253 260
289 284 282 274 268 260 251 235 211 196 198 196 191 191 192 188 190 191 184 189 192 192 197 190 192 194 191 187 189 198 204 206 205 210 214 220 227 234 233 232 234 250 257
307 307 305 297 295 278 262 234 221 203 197 200 192 186 184 183 187 188 185 183 181 179 185 188 187 190 188 186 188 200 204 202 202 203 206 217 225 230 234 240 241 238 251
330 333 324 313 312 303 274 246 227 213 195 186 187 182 176 181 181 176 177 175 168 167 170 182 185 188 188 186 185 194 205 204 203 204 204 212 221 223 227 234 241 243 248
327 328 328 316 315 326 330 269 203 153 148 158 165 166 167 170 165 165 170 163 152 162 167 179 185 189 191 185 185 196 202 206 206 204 206 214 219 218 224 231 235 241 246
321 323 326 329 336 353 359 29 72 104 119 142 148 150 160 159 155 154 159 155 150 161 172 177 185 191 192 188 191 200 210 212 209 208 211 217 220 219 223 225 230 238 250
327 328 331 327 334 348 357 11 59 85 100 120 125 128 149 156 162 158 157 156 160 174 176 182 190 190 191 196 200 202 212 217 216 212 215 217 220 226 228 228 231 236 248
320 322 323 320 320 325 332 335 3 47 81 92 94 105 138 163 171 164 166 174 181 189 189 192 198 196 197 202 206 206 213 217 216 214 217 219 220 227 229 232 233 235 239
309 306 307 309 308 310 317 316 320 353 67 104 90 62 310 205 168 172 179 185 194 201 201 200 201 199 201 206 207 208 213 216 215 217 221 223 228 234 232 234 236 233 234
298 297 297 297 296 298 296 291 293 288 273 204 234 264 268 229 197 192 189 191 204 209 207 209 212 213 212 203 205 208 209 213 216 219 222 225 226 226 231 243 241 236 233
295 292 287 282 282 279 271 260 259 257 245 241 252 256 246 242 223 209 199 207 217 216 215 219 220 224 222 207 206 209 212 214 220 223 225 227 230 232 235 235 232 236 242
297 294 290 284 281 274 267 259 247 241 235 237 246 252 244 243 236 221 217 222 224 224 224 227 230 233 229 214 216 213 217 224 227 228 227 228 231 231 236 238 239 242 245
293 293 291 282 274 266 259 245 237 236 236 240 244 246 239 238 237 232 231 232 229 231 235 233 233 238 237 223 218 218 220 225 230 232 233 232 233 230 229 237 242 250 257
295 293 292 285 272 267 251 232 235 239 242 244 245 243 237 234 236 238 238 236 231 233 236 238 238 241 246 234 220 220 222 227 232 234 233 232 237 239 231 236 238 245 255
294 294 288 282 274 268 245 233 238 246 254 249 241 238 235 235 236 238 239 233 231 231 235 241 243 244 246 238 230 226 226 229 233 236 236 234 233 239 237 237 239 246 253
294 292 286 285 284 269 248 245 249 258 259 246 236 236 237 238 234 233 234 231 227 228 235 241 247 246 243 242 237 232 235 235 235 239 241 241 234 235 237 238 240 243 244
288 286 280 281 285 274 255 250 256 259 252 242 236 238 241 241 235 232 232 231 228 229 233 235 242 246 245 240 237 232 235 235 239 246 247 249 238 235 238 237 237 238 239
284 282 277 275 281 282 272 260 258 255 243 238 239 239 237 240 238 234 230 230 229 231 233 233 238 244 245 241 233 229 235 238 241 247 242 238 235 236 244 248 244 241 239
282 276 272 272 277 280 275 271 261 244 240 241 239 238 238 240 240 240 238 237 239 239 237 236 234 235 241 244 241 237 238 239 236 236 239 239 237 239 242 246 247 244 240
278 273 272 270 273 273 272 270 263 244 237 238 239 238 235 235 236 240 249 251 248 255 250 246 243 245 251 244 235 238 243 240 229 233 230 233 237 240 244 247 250 247 244
Height
1486 1486 1487 1487 1487 1487 1487 1488 1489 1490 1492 1493 1494 1496 1498 1499 1501 1503 1505 1507 1509 1511 1512 1514 1515 1517 1518 1519 1520 1521 1522 1523 1524 1525 1525 1525 1525 1525 1526 1526 1526 1526 1526
1483 1483 1483 1483 1483 1483 1484 1485 1486 1487 1489 1490 1491 1493 1495 1496 1498 1500 1502 1504 1505 1507 1509 1510 1512 1513 1514 1516 1517 1518 1519 1520 1522 1523 1523 1524 1525 1522 1523 1523 1523 1523 1523
1480 1480 1479 1479 1480 1480 1481 1482 1483 1484 1486 1487 1488 1490 1492 1493 1495 1497 1498 1500 1502 1504 1505 1507 1508 1510 1511 1513 1514 1515 1516 1518 1519 1520 1521 1522 1521 1521 1520 1520 1521 1521 1521
1477 1477 1476 1476 1477 1477 1478 1479 1480 1481 1482 1483 1485 1486 1488 1489 1491 1493 1495 1497 1499 1501 1502 1504 1505 1507 1508 1509 1511 1512 1513 1515 1515 1516 1517 1519 1518 1519 1518 1518 1518 1517 1517
1474 1474 1473 1474 1474 1475 1475 1476 1477 1478 1479 1480 1481 1483 1485 1487 1489 1490 1492 1494 1496 1498 1499 1500 1501 1503 1505 1506 1507 1508 1510 1511 1512 1513 1514 1515 1515 1515 1516 1515 1515 1515 1514
1472 1471 1471 1472 1472 1472 1473 1473 1474 1475 1476 1477 1479 1480 1482 1484 1486 1487 1489 1490 1492 1494 1495 1496 1498 1500 1501 1502 1504 1505 1506 1508 1509 1510 1511 1511 1512 1512 1512 1512 1512 1512 1512
1469 1469 1469 1469 1469 1469 1470 1471 1471 1473 1474 1475 1476 1478 1479 1481 1482 1484 1485 1487 1488 1490 1491 1493 1495 1496 1498 1499 1500 1502 1503 1504 1505 1506 1507 1508 1508 1509 1509 1509 1509 1508 1508
1468 1467 1467 1467 1467 1467 1467 1468 1469 1470 1471 1472 1474 1475 1477 1478 1480 1481 1482 1484 1485 1486 1488 1490 1492 1493 1494 1496 1497 1498 1499 1500 1501 1502 1503 1504 1504 1505 1505 1506 1506 1505 1505
1466 1465 1465 1465 1465 1465 1465 1466 1466 1467 1469 1470 1471 1472 1474 1475 1477 1478 1479 1481 1482 1484 1485 1487 1489 1490 1491 1492 1493 1494 1496 1497 1497 1498 1499 1500 1501 1501 1502 1502 1503 1504 1503
1464 1464 1463 1463 1463 1463 1463 1464 1464 1465 1466 1467 1468 1470 1471 1473 1474 1476 1477 1478 1480 1481 1482 1484 1485 1487 1488 1489 1490 1491 1492 1493 1493 1494 1495 1496 1497 1498 1498 1499 1499 1499 1500
1463 1462 1462 1462 1461 1461 1461 1461 1462 1463 1463 1465 1466 1467 1469 1470 1471 1473 1474 1475 1477 1478 1480 1481 1482 1484 1485 1485 1486 1487 1488 1489 1489 1490 1491 1492 1493 1494 1495 1495 1495 1496 1496
1463 1462 1461 1460 1460 1459 1459 1459 1460 1461 1461 1462 1463 1465 1466 1468 1469 1470 1472 1473 1474 1476 1477 1478 1479 1481 1481 1482 1483 1484 1484 1485 1485 1486 1487 1488 1489 1490 1491 1491 1492 1492 1492
1461 1460 1459 1459 1458 1458 1458 1458 1458 1459 1460 1461 1462 1463 1464 1465 1467 1468 1469 1471 1472 1473 1474 1475 1476 1477 1478 1479 1479 1480 1480 1481 1482 1483 1484 1485 1485 1486 1487 1487 1488 1489 1489
1460 1459 1458 1457 1457 1457 1457 1457 1457 1458 1458 1459 1460 1461 1462 1464 1465 1466 1467 1468 1470 1471 1472 1473 1473 1474 1474 1475 1476 1476 1477 1477 1478 1479 1480 1481 1482 1482 1483 1484 1484 1485 1485
1458 1457 1456 1456 1455 1455 1455 1455 1456 1456 1457 1457 1458 1459 1461 1462 1463 1464 1465 1466 1467 1468 1469 1470 1470 1471 1471 1471 1472 1472 1473 1474 1475 1476 1476 1477 1477 1478 1479 1480 1481 1481 1481
1456 1456 1455 1454 1454 1453 1453 1454 1454 1455 1456 1456 1457 1458 1459 1460 1461 1462 1463 1463 1464 1465 1466 1466 1467 1467 1468 1468 1469 1469 1470 1471 1471 1472 1472 1473 1474 1475 1475 1476 1477 1478 1478
1454 1453 1453 1453 1452 1452 1452 1452 1452 1453 1454 1454 1455 1456 1456 1457 1458 1459 1460 1461 1461 1462 1463 1463 1464 1464 1465 1465 1466 1466 1467 1467 1467 1468 1469 1470 1470 1471 1472 1472 1473 1473 1474
1451 1451 1450 1450 1450 1450 1450 1450 1450 1451 1452 1452 1452 1453 1454 1455 1456 1456 1457 1457 1458 1459 1459 1460 1460 1461 1461 1462 1462 1463 1463 1463 1464 1465 1465 1466 1467 1467 1468 1468 1468 1469 1469
1449 1448 1447 1447 1446 1446 1447 1447 1447 1448 1449 1449 1449 1450 1451 1452 1452 1453 1453 1454 1455 1455 1456 1456 1456 1457 1457 1458 1459 1459 1459 1460 1460 1461 1462 1462 1463 1464 1464 1465 1464 1464 1465
1446 1445 1444 1444 1443 1443 1443 1444 1444 1445 1445 1446 1446 1447 1448 1448 1449 1449 1450 1450 1451 1451 1452 1452 1452 1453 1453 1454 1454 1455 1455 1456 1456 1457 1457 1458 1459 1460 1460 1460 1460 1460 1461
1442 1442 1441 1440 1440 1440 1440 1441 1441 1442 1442 1442 1443 1443 1444 1444 1445 1445 1446 1446 1447 1447 1448 1448 1448 1448 1449 1449 1450 1451 1451 1452 1452 1453 1453 1454 1455 1455 1456 1456 1456 1457 1457
1439 1438 1437 1437 1437 1437 1437 1437 1437 1438 1438 1438 1439 1439 1440 1440 1441 1441 1441 1442 1443 1443 1443 1444 1444 1444 1444 1445 1445 1446 1447 1447 1448 1448 1449 1450 1450 1451 1452 1452 1452 1453 1453
1436 1435 1434 1434 1434 1434 1434 1433 1433 1434 1434 1434 1434 1435 1435 1436 1436 1437 1437 1437 1438 1438 1439 1439 1439 1439 1440 1440 1441 1442 1442 1443 1444 1444 1445 1446 1446 1447 1447 1447 1448 1448 1448
1433 1432 1431 1430 1430 1430 1430 1430 1430 1430 1430 1430 1430 1430 1430 1431 1432 1432 1433 1433 1433 1434 1434 1434 1434 1435 1436 1436 1437 1437 1438 1439 1439 1440 1441 1441 1442 1442 1442 1442 1443 1443 1443
1429 1428 1427 1427 1426 1426 1426 1426 1426 1426 1426 1426 1426 1426 1426 1427 1427 1427 1428 1428 1429 1429 1430 1430 1430 1431 1431 1432 1433 1433 1434 1434 1435 1436 1436 1437 1437 1437 1437 1438 1438 1438 1438
1426 1425 1424 1423 1423 1423 1422 1422 1422 1422 1422 1422 1422 1422 1422 1423 1423 1423 1423 1424 1424 1425 1425 1426 1426 1426 1427 1428 1428 1429 1430 1431 1431 1432 1432 1432 1432 1432 1432 1433 1433 1433 1433